SL-8 R/B

Last updated on Tue Jul 01 2025 00:02:14 GMT+0000 (Coordinated Universal Time)

1 21938U 92020B 25181.57597899 .00000115 00000+0 10409-3 0 9995 2 21938 82.9312 340.9970 0027690 282.1076 149.6340 13.75512384666477

Satellite not in orbit